Other Surface Observations
Issued by NWS

Home | Current Version | Previous Version | Text Only | Print | Product List | Glossary On
Versions: 1 2 3 4 5 6 7 8 9 10 11 12 13 14 15 16 17 18 19 20 21 22 23 24 25 26 27 28 29 30 31 32 33 34 35 36 37 38 39 40 41 42 43 44 45 46 47 48 49 50
206
SXUS52 KTAE 201218
OSOTAE
OSOTAE
North Florida/South Alabama/Southwest Georgia Weather Roundup
National Weather Service Tallahassee Florida
700 AM EST FRI JAN 20 2017

Note: "fair" indicates few or no clouds below 12,000 feet with no
significant weather and/or obstructions to visibility.

!FLZ017-115-028-034-025-201300
...North Florida...

CITY           SKY/WX    TMP DP  RH WIND       PRES   REMARKS
TALLAHASSEE    PTCLDY    63  62  97 SW5       29.89S
APALACHICOLA   CLOUDY    67  66  97 SW7       29.89S
PERRY          CLOUDY    68  67  97 SW10      29.91R
CROSS CITY     CLOUDY    66  66 100 SW9       29.91R
JACKSONVILLE   MOCLDY    64  62  93 S9        29.90F
$$

!FLZ112-006-005-002-011-201300
...Florida Panhandle...

CITY           SKY/WX    TMP DP  RH WIND       PRES   REMARKS
MARIANNA       CLOUDY    63  63 100 S5        29.87S
BONIFAY          N/A     64  64 100 S5        29.88R
PANAMA CITY NW FAIR      64  63  96 SE5       29.86S
TYNDALL AFB    CLEAR     66  64  94 S7        29.88R
TYND DRONE APT FAIR      66  65  97 SE10      29.88S
DE FUNIAK SPR  FOG       63  63 100 S3        29.86F VSB 1/4
EGLIN AFB      PTCLDY    65  65  99 S3        29.84F
DESTIN         CLEAR     70  69  97 SW3       29.85S
HURLBURT       PTCLDY    65  57  76 S5        29.83F
CRESTVIEW      FOG       62  61  96 CALM      29.86S VSB 1/4
PENSACOLA      FOG       64  62  93 S5        29.84S VSB 3/4
$$

!ALZ063-066-201300
...South Alabama...

CITY           SKY/WX    TMP DP  RH WIND       PRES   REMARKS
DOTHAN         CLOUDY    63  63 100 SW10      29.90R
OZARK CAIRNS   CLOUDY    64  63  94 SW8       29.86R
FT RUCKER HELI CLOUDY    65  62  90 S8        29.85S
RUCKER HELI 3  NOT AVBL
RUCKER HELI 2  CLOUDY    64  62  93 S5        29.86R
FLORALA APT    CLOUDY    65  63  93 S7        29.86F
ANDALUSIA      MOCLDY    66  63  90 CALM      29.85S
TROY           CLOUDY    63  63 100 S7        29.86R
EUFALA         CLOUDY    66  62  87 SW3       29.85R
MOBILE         MOCLDY    62  61  96 S5        29.84R
$$

!GAZ120>161-201300
...Southwest and South Central Georgia...

CITY           SKY/WX    TMP DP  RH WIND       PRES   REMARKS
THOMASVILLE    FAIR      64  64 100 SW8       29.89R
BAINBRIDGE     CLOUDY    63  61  94 SW12      29.88S
MOODY AFB      MOCLDY    65  63  94 SW14      29.87R
VALDOSTA       CLOUDY    64  63  96 SW5       29.89R
MOULTRIE       CLEAR     64  63  94 SW5       29.89R
BLAKELY        CLOUDY    66  63  88 SW6       29.88R
ALBANY         CLOUDY    66  65  96 SW7       29.88S
TIFTON         CLOUDY    65  65 100 S7        29.87S
FITZGERALD     CLOUDY    66  66 100 SW6       29.89S
CORDELE        CLOUDY    66  65  97 SW6       29.87S
AMERICUS       CLOUDY    63  63 100 SW8       29.88R
HOMERVILLE     FAIR      63  63 100 W3        29.89R
$$

!GMZ750-755-770-775-201300
...Coastal and Buoy Obs...

STATION/POSITION TIME  TEMP    WIND        PRES    VSBY  WAVE
                       AIR SEA DIR/SP/G                  HT/PER
                 (UTC) (F)     (DEG/KT/KT) (MB)    (MI)  (FT/S)
KEATON BEACH     1200   65     210/ 12/ 15 1012.4R
CEDAR KEY        1200   67     230/  6/ 10 1013.9R
C TOWER          1200   69     220/ 12/ 12 1012.9F
APALACHICOLA BUO 1150   70 73  280/  8/ 10 1013.6R         3/ 6
PANAMA CITY BUOY 1150   74 75              1012.3R         4/ 6
MOBILE BUOY      NOT AVBL
ORANGE BCH AL BU 1150   67 66  190/  6/  8 1010.3R         4/ 6
$$




USA.gov is the U.S. government's official web portal to all federal, state and local government web resources and services.